TimeCDT,TemperatureF,Dew PointF,Humidity,Sea Level PressureIn,VisibilityMPH,Wind Direction,Wind SpeedMPH,Gust SpeedMPH,PrecipitationIn,Events,Conditions,WindDirDegrees,DateUTC
12:15 AM,69.4,58.3,68,30.09,10.0,East,6.9,-,N/A,,Overcast,80,2012-10-09 05:15:00
12:35 AM,69.1,58.1,68,30.08,10.0,East,9.2,-,N/A,Rain,Rain,80,2012-10-09 05:35:00
12:55 AM,68.9,58.8,70,30.07,10.0,East,6.9,-,N/A,,Overcast,90,2012-10-09 05:55:00
1:15 AM,68.9,59.2,71,30.07,10.0,East,6.9,-,N/A,Rain,Light Rain,90,2012-10-09 06:15:00
1:35 AM,68.9,59.4,72,30.05,10.0,ENE,6.9,-,N/A,Rain,Light Rain,70,2012-10-09 06:35:00
1:55 AM,68.4,59.5,73,30.06,10.0,ENE,3.5,-,N/A,,Mostly Cloudy,70,2012-10-09 06:55:00
2:15 AM,68.2,59.9,75,30.05,10.0,Calm,Calm,-,N/A,Rain,Rain,0,2012-10-09 07:15:00
2:35 AM,67.8,59.4,74,30.05,10.0,Calm,Calm,-,N/A,Rain,Rain,0,2012-10-09 07:35:00
2:55 AM,67.3,59.2,75,30.05,10.0,Calm,Calm,-,N/A,,Mostly Cloudy,0,2012-10-09 07:55:00
3:15 AM,66.4,58.6,76,30.04,10.0,North,3.5,-,N/A,,Mostly Cloudy,360,2012-10-09 08:15:00
3:35 AM,67.1,59.2,76,30.04,10.0,North,3.5,-,N/A,,Overcast,360,2012-10-09 08:35:00
3:55 AM,67.1,58.6,74,30.04,10.0,North,3.5,-,N/A,,Overcast,350,2012-10-09 08:55:00
4:15 AM,67.3,59.0,75,30.04,10.0,North,5.8,-,N/A,Rain,Rain,350,2012-10-09 09:15:00
4:35 AM,67.1,58.8,75,30.03,10.0,NNE,6.9,-,N/A,Rain,Light Rain,20,2012-10-09 09:35:00
4:55 AM,66.7,59.0,76,30.02,10.0,NNE,3.5,-,N/A,,Overcast,30,2012-10-09 09:55:00
5:15 AM,66.7,59.0,76,30.02,10.0,North,3.5,-,N/A,,Mostly Cloudy,10,2012-10-09 10:15:00
5:35 AM,66.2,59.0,78,30.03,10.0,Calm,Calm,-,N/A,,Scattered Clouds,0,2012-10-09 10:35:00
5:55 AM,66.0,58.6,77,30.03,10.0,NW,4.6,-,N/A,,Mostly Cloudy,320,2012-10-09 10:55:00
6:15 AM,66.0,58.6,77,30.03,10.0,NNW,4.6,-,N/A,Rain,Rain,340,2012-10-09 11:15:00
6:35 AM,65.7,59.0,79,30.03,10.0,NNW,4.6,-,N/A,,Mostly Cloudy,340,2012-10-09 11:35:00
6:55 AM,65.3,58.5,78,30.03,10.0,North,4.6,-,N/A,,Scattered Clouds,360,2012-10-09 11:55:00
7:15 AM,65.3,58.6,79,30.03,10.0,North,5.8,-,N/A,Rain,Light Rain,10,2012-10-09 12:15:00
7:55 AM,65.5,59.0,80,30.04,10.0,NNW,5.8,-,N/A,Rain,Rain,340,2012-10-09 12:55:00
8:15 AM,66.4,59.4,78,30.04,10.0,North,4.6,-,N/A,Rain,Rain,360,2012-10-09 13:15:00
8:35 AM,67.3,59.9,77,30.05,10.0,North,4.6,-,N/A,Rain,Rain,10,2012-10-09 13:35:00
8:55 AM,69.1,60.8,75,30.05,10.0,Calm,Calm,-,N/A,,Mostly Cloudy,0,2012-10-09 13:55:00
9:15 AM,70.9,61.3,72,30.06,10.0,Calm,Calm,-,N/A,,Mostly Cloudy,0,2012-10-09 14:15:00
9:35 AM,72.0,62.6,72,30.07,10.0,Calm,Calm,-,N/A,,Mostly Cloudy,0,2012-10-09 14:35:00
9:55 AM,74.1,63.5,69,30.07,10.0,Calm,Calm,-,N/A,,Mostly Cloudy,0,2012-10-09 14:55:00
10:15 AM,76.8,65.3,67,30.06,10.0,Calm,Calm,-,N/A,,Scattered Clouds,0,2012-10-09 15:15:00
10:35 AM,79.7,66.4,64,30.06,10.0,SE,3.5,-,N/A,,Mostly Cloudy,140,2012-10-09 15:35:00
10:55 AM,81.7,67.5,62,30.06,10.0,SE,11.5,16.1,N/A,,Scattered Clouds,140,2012-10-09 15:55:00
11:15 AM,83.8,68.2,59,30.05,10.0,SSE,11.5,-,N/A,,Scattered Clouds,150,2012-10-09 16:15:00
11:35 AM,84.6,68.0,57,30.05,10.0,South,13.8,20.7,N/A,,Scattered Clouds,170,2012-10-09 16:35:00
11:55 AM,85.1,67.5,55,30.04,10.0,SSE,13.8,-,N/A,,Scattered Clouds,160,2012-10-09 16:55:00
12:15 PM,85.5,67.1,54,30.03,10.0,SE,15.0,18.4,N/A,,Mostly Cloudy,140,2012-10-09 17:15:00
12:35 PM,87.1,66.4,50,30.02,10.0,South,11.5,18.4,N/A,,Mostly Cloudy,170,2012-10-09 17:35:00
12:55 PM,86.9,66.9,51,30.01,10.0,South,12.7,20.7,N/A,,Mostly Cloudy,170,2012-10-09 17:55:00
1:15 PM,86.2,66.9,52,30.00,10.0,SSE,11.5,18.4,N/A,,Mostly Cloudy,160,2012-10-09 18:15:00
1:35 PM,86.9,67.1,52,29.99,10.0,SSE,12.7,20.7,N/A,,Mostly Cloudy,150,2012-10-09 18:35:00
1:55 PM,87.4,66.4,49,29.98,10.0,SSE,16.1,-,N/A,,Mostly Cloudy,150,2012-10-09 18:55:00
2:15 PM,88.3,66.4,48,29.97,10.0,South,13.8,18.4,N/A,,Mostly Cloudy,170,2012-10-09 19:15:00
2:35 PM,89.1,66.6,47,29.96,10.0,SSE,11.5,-,N/A,,Scattered Clouds,160,2012-10-09 19:35:00
2:55 PM,89.1,66.6,47,29.95,10.0,South,12.7,18.4,N/A,,Mostly Cloudy,180,2012-10-09 19:55:00
3:15 PM,89.1,66.9,48,29.94,10.0,SSE,13.8,-,N/A,,Mostly Cloudy,160,2012-10-09 20:15:00
3:35 PM,88.5,68.0,50,29.94,10.0,SE,10.4,23.0,N/A,,Mostly Cloudy,140,2012-10-09 20:35:00
3:55 PM,88.2,68.2,51,29.94,10.0,SE,16.1,-,N/A,,Mostly Cloudy,140,2012-10-09 20:55:00
4:15 PM,88.2,68.7,52,29.94,10.0,SSE,15.0,20.7,N/A,,Mostly Cloudy,150,2012-10-09 21:15:00
4:35 PM,87.8,68.7,53,29.93,10.0,ESE,15.0,21.9,N/A,,Scattered Clouds,120,2012-10-09 21:35:00
4:55 PM,86.5,68.9,56,29.93,10.0,SE,17.3,21.9,N/A,,Scattered Clouds,130,2012-10-09 21:55:00
5:15 PM,86.5,69.1,56,29.93,10.0,SE,18.4,21.9,N/A,,Scattered Clouds,130,2012-10-09 22:15:00
5:35 PM,85.8,69.3,58,29.93,10.0,SE,19.6,23.0,N/A,,Scattered Clouds,130,2012-10-09 22:35:00
5:55 PM,84.9,69.1,59,29.94,10.0,SE,18.4,21.9,N/A,,Scattered Clouds,130,2012-10-09 22:55:00
6:15 PM,83.8,68.9,61,29.94,10.0,SE,17.3,21.9,N/A,,Clear,130,2012-10-09 23:15:00
6:35 PM,82.8,69.3,64,29.94,10.0,SE,16.1,-,N/A,,Clear,140,2012-10-09 23:35:00
6:55 PM,81.9,69.3,65,29.94,10.0,SE,17.3,21.9,N/A,,Clear,130,2012-10-09 23:55:00
7:15 PM,81.1,69.4,67,29.95,10.0,SE,16.1,-,N/A,,Clear,130,2012-10-10 00:15:00
7:35 PM,80.6,69.8,70,29.95,10.0,SE,13.8,-,N/A,,Clear,130,2012-10-10 00:35:00
7:55 PM,80.1,70.2,72,29.95,10.0,SE,12.7,-,N/A,,Clear,130,2012-10-10 00:55:00
8:15 PM,79.7,70.7,74,29.96,10.0,SE,11.5,-,N/A,,Clear,140,2012-10-10 01:15:00
8:35 PM,79.0,70.7,76,29.97,10.0,SE,9.2,-,N/A,,Clear,130,2012-10-10 01:35:00
8:55 PM,78.4,70.7,77,29.97,10.0,SE,9.2,-,N/A,,Clear,130,2012-10-10 01:55:00
9:15 PM,78.1,70.7,78,29.98,10.0,SE,9.2,-,N/A,,Clear,130,2012-10-10 02:15:00
9:35 PM,77.9,70.7,78,29.98,10.0,SE,8.1,-,N/A,,Clear,130,2012-10-10 02:35:00
9:55 PM,77.4,70.9,80,29.98,10.0,SE,8.1,-,N/A,,Clear,140,2012-10-10 02:55:00
10:15 PM,77.0,70.9,81,29.99,10.0,SE,8.1,-,N/A,,Clear,140,2012-10-10 03:15:00
10:35 PM,76.6,70.9,82,29.99,10.0,SE,6.9,-,N/A,,Clear,140,2012-10-10 03:35:00
10:55 PM,76.3,70.9,83,29.99,10.0,SE,6.9,-,N/A,,Clear,140,2012-10-10 03:55:00
11:15 PM,76.5,71.4,84,29.99,10.0,SSE,6.9,-,N/A,,Clear,150,2012-10-10 04:15:00
11:35 PM,76.5,71.6,85,29.99,10.0,SSE,6.9,-,N/A,,Clear,150,2012-10-10 04:35:00
11:55 PM,76.5,71.8,85,29.99,10.0,SSE,6.9,-,N/A,,Clear,150,2012-10-10 04:55:00